Weather Roundup
Issued by NWS Corpus Christi, TX

Home | Current Version | Previous Version | Text Only | Print | Product List | Glossary On
Versions: 1 2 3 4 5 6 7 8 9 10 11 12 13 14 15 16 17 18 19 20 21 22 23 24 25 26 27 28 29 30 31 32 33 34 35 36 37 38 39 40 41 42 43 44 45 46 47 48 49 50
000
ASUS44 KCRP 261510
HRRCRP

SOUTH TEXAS REGIONAL WEATHER ROUNDUP
NATIONAL WEATHER SERVICE CORPUS CHRISTI TX
1000 AM CDT FRI MAY 26 2017


TXZ229>244-261600-
...CORPUS CHRISTI AREA OBSERVATIONS...

CITY           SKY/WX    TMP DP  RH WIND       PRES   REMARKS
CORPUS CHRISTI CLOUDY    81  77  88 S12       29.85R
NAS CORPUS CHR CLOUDY    84  77  79 S15G22    29.85R HX  94
ROCKPORT       CLOUDY    82  74  76 S9        29.87R
KINGSVILLE NAS CLOUDY    83  77  82 SE9       29.84R HX  92
ALICE          CLOUDY    81  74  79 SE8       29.84R
ORANGE GROVE   CLOUDY    80  76  87 SE9       29.86R
FALFURRIAS     CLOUDY    83  75  75 SE10      29.83R HX  91
$$

...VICTORIA AREA OBSERVATIONS...

CITY           SKY/WX    TMP DP  RH WIND       PRES   REMARKS
VICTORIA       CLOUDY    81  74  79 S9        29.88S
BEEVILLE       CLOUDY    81  76  85 S14G20    29.86S
PLEASANTON     CLOUDY    79  73  81 SE8       29.86R
SAN ANTONIO    CLOUDY    78  72  81 S9        29.87R
$$

...LAREDO AREA OBSERVATIONS...

CITY           SKY/WX    TMP DP  RH WIND       PRES   REMARKS
LAREDO         CLOUDY    82  74  76 SE10      29.83R
COTULLA        CLOUDY    83  73  72 SE9       29.84R
DEL RIO        CLOUDY    80  74  81 SE7       29.85R
MCALLEN        PTSUNNY   88  76  67 S21G28    29.80S HX  99
HEBBRONVILLE   CLOUDY    82  72  69 S13       29.84S
$$

...OTHER TEXAS OBSERVATIONS...

CITY           SKY/WX    TMP DP  RH WIND       PRES   REMARKS
BROWNSVILLE    CLOUDY    88  76  67 S25G33    29.83R HX  99
HOUSTON        PTSUNNY   82  72  71 S12G21    29.91R
COL. STATION   CLOUDY    80  73  79 S12       29.88R
AUSTIN         CLOUDY    81  73  76 S13G20    29.86R
WACO           PTSUNNY   82  71  69 S22G29    29.83R
FORT WORTH     MOSUNNY   85  72  65 S22G30    29.76R HX  91
WICHITA FALLS  MOSUNNY   85  60  42 W23G30    29.71R
LUBBOCK        MOSUNNY   74  42  31 NW10      29.91R
EL PASO        PTSUNNY   79  28  15 W17       30.02R
$$

...MARINE OBSERVATIONS...

STATION/POSITION TIME  SKY/WX   TEMP    WIND        PRES    VSBY  WAVE   SWELL
                                AIR SEA DIR/SP/G                  HT/PER HT/PER
                 (UTC)          (F)     (DEG/KT/KT) (MB)    (MI)  (FT/S) (FT/S)
PORT ARANSAS     1400            80 79  160/ 15/ 17 1010.8R
BUOY 90 E PORT A 1350            79 79  150/ 16/ 17 1011.7          5/ 6
BUOY 45 SE BAFFI 1450            80     160/ 17/ 21 1010.0R         7/ 7
BUOY 200 E PT IS 1350            80 80  150/ 16/ 19 1013.1          5/ 6
BUOY 15 E GALVES 1350            78 78  190/ 16/ 17 1012.8          5/ 6
$$




USA.gov is the U.S. government's official web portal to all federal, state and local government web resources and services.